GFSFLT1_prec_precacc_246.txt.gz
Total_Precipitation_Accumulation
0.03 0.08 0.04 0.04 0.18 0.44 0.86 0.94 1.09 1.10 0.80 0.67 0.68 0.81 0.92 0.98 0.92 0.93 1.19 1.27 1.27 1.36 1.54 1.77 1.79 1.61 1.29 1.08 1.17 1.32 1.30 1.16
0.04 0.07 0.08 0.06 0.13 0.38 0.49 0.73 0.92 0.65 0.41 0.36 0.41 0.49 0.58 0.95 1.02 0.76 0.99 1.25 1.22 1.12 1.40 2.15 2.28 1.46 1.01 1.07 1.34 1.35 1.20 1.06
0.01 0.03 0.05 0.08 0.17 0.38 0.48 0.32 0.28 0.34 0.35 0.21 0.16 0.22 0.35 0.69 1.03 0.81 0.85 0.97 1.02 1.12 0.94 1.05 1.60 1.87 1.70 1.24 1.24 1.51 1.38 1.28
0.02 0.04 0.04 0.06 0.09 0.16 0.30 0.13 0.08 0.08 0.15 0.21 0.20 0.21 0.39 1.10 1.40 1.09 0.86 0.95 0.98 1.08 1.05 0.96 1.13 1.77 1.77 1.34 0.99 1.16 1.59 1.50
0.00 0.00 0.00 0.03 0.03 0.07 0.29 0.15 0.07 0.06 0.06 0.11 0.16 0.19 0.21 0.54 1.07 0.98 0.82 1.13 1.09 0.96 1.14 1.17 1.07 1.07 1.37 1.36 1.10 0.99 1.51 1.50
0.01 0.01 0.00 0.00 0.06 0.08 0.23 0.22 0.28 0.17 0.15 0.21 0.35 0.28 0.21 0.30 0.94 1.28 1.04 1.10 1.29 1.33 1.30 1.45 1.51 1.61 1.23 1.74 1.64 1.52 1.65 1.38
0.04 0.02 0.02 0.02 0.02 0.11 0.19 0.17 0.28 0.32 0.42 0.41 0.37 0.41 0.30 0.28 0.58 1.13 1.42 1.30 1.34 1.33 1.34 1.35 1.29 1.36 1.51 1.79 2.17 2.18 2.20 1.97
0.09 0.06 0.06 0.07 0.05 0.17 0.20 0.20 0.32 0.36 0.41 0.36 0.39 0.47 0.62 0.61 0.60 0.95 1.43 1.74 1.56 1.08 1.21 1.23 1.19 1.00 1.09 1.42 1.91 2.13 2.52 2.68
0.16 0.16 0.18 0.21 0.20 0.22 0.34 0.33 0.50 0.48 0.52 0.66 0.63 0.62 0.70 0.80 0.67 0.86 1.37 1.28 1.15 0.92 1.12 1.28 1.25 1.29 1.34 1.33 1.51 1.53 1.62 1.97
0.19 0.21 0.24 0.28 0.30 0.29 0.34 0.35 0.58 0.62 0.61 0.71 0.69 0.70 0.74 0.73 0.75 0.75 0.95 1.08 1.24 1.19 1.36 1.43 1.42 1.39 1.43 1.47 1.41 1.39 1.43 1.46
0.27 0.27 0.31 0.32 0.34 0.37 0.54 0.41 0.38 0.57 0.74 0.75 0.63 0.75 0.90 0.89 0.85 0.89 1.02 1.42 1.60 1.79 1.82 1.60 1.57 1.62 1.70 1.67 1.58 1.46 1.61 1.52
0.53 0.61 0.51 0.57 0.57 0.56 0.68 0.77 0.87 0.91 0.88 0.82 0.90 1.10 1.45 1.45 1.39 1.34 1.46 1.84 2.05 1.94 2.04 2.23 2.05 2.08 2.09 2.07 1.98 1.85 1.76 1.67
0.41 0.96 1.11 1.06 1.07 1.21 1.06 1.00 1.13 1.24 1.19 1.26 1.76 2.15 2.32 2.24 2.24 2.45 2.25 1.96 1.85 1.79 2.00 2.16 2.11 2.27 2.43 2.36 2.25 2.10 2.02 2.14
0.24 0.47 0.78 1.32 0.85 1.19 1.03 1.05 1.41 1.70 1.83 1.98 2.18 2.36 2.44 2.64 2.68 2.47 2.30 2.56 2.81 2.63 2.66 2.76 2.52 2.52 2.89 2.97 2.86 2.64 2.46 2.47
0.30 0.35 0.44 0.56 0.80 1.43 2.21 1.21 1.48 1.80 1.92 1.77 1.91 2.34 2.44 2.48 2.33 2.06 1.81 1.93 2.06 2.30 2.30 2.32 2.37 2.45 2.50 2.80 3.01 3.18 2.86 2.62
0.30 0.40 0.49 0.52 0.55 0.58 0.79 0.85 1.53 2.19 2.04 1.88 2.14 2.17 2.24 2.25 2.14 1.75 1.49 1.52 1.51 1.49 1.51 1.74 1.89 2.06 2.34 2.33 2.50 2.80 2.79 2.73
0.25 0.31 0.36 0.42 0.54 0.70 0.71 0.71 1.17 1.67 1.98 2.38 2.03 2.39 2.40 1.96 1.99 1.79 1.61 1.54 1.49 1.62 1.46 1.59 1.94 1.98 2.51 2.44 2.39 2.60 2.75 2.75
0.20 0.27 0.30 0.37 0.40 0.34 0.40 0.50 0.64 0.85 1.57 2.59 2.57 2.85 3.86 2.89 2.01 1.99 1.94 2.18 2.05 1.87 2.03 1.98 1.95 1.91 2.56 2.54 2.56 2.34 2.75 2.79
0.22 0.22 0.29 0.32 0.28 0.23 0.20 0.21 0.30 0.39 0.44 1.07 2.19 2.52 3.36 4.25 3.28 2.73 2.83 2.64 2.62 2.27 2.14 2.11 1.95 2.59 2.76 3.01 3.35 2.82 2.50 2.66

GFSFLT1_prec_precacc_249.txt.gz
Total_Precipitation_Accumulation
0.03 0.08 0.04 0.05 0.18 0.44 0.86 0.94 1.10 1.10 0.80 0.67 0.68 0.81 0.92 0.98 0.92 0.93 1.19 1.27 1.27 1.36 1.54 1.77 1.79 1.61 1.29 1.08 1.17 1.32 1.30 1.16
0.04 0.07 0.08 0.06 0.13 0.38 0.49 0.73 0.92 0.65 0.41 0.36 0.41 0.49 0.58 0.95 1.02 0.76 0.99 1.25 1.22 1.12 1.40 2.15 2.28 1.46 1.01 1.07 1.34 1.35 1.20 1.06
0.01 0.03 0.05 0.08 0.17 0.38 0.48 0.32 0.28 0.35 0.35 0.21 0.16 0.22 0.35 0.69 1.03 0.81 0.85 0.97 1.02 1.12 0.94 1.05 1.60 1.87 1.70 1.24 1.24 1.51 1.38 1.28
0.02 0.04 0.04 0.06 0.09 0.16 0.30 0.13 0.08 0.08 0.16 0.25 0.24 0.21 0.39 1.10 1.40 1.09 0.86 0.95 0.98 1.08 1.05 0.96 1.13 1.77 1.77 1.34 0.99 1.16 1.59 1.50
0.00 0.00 0.00 0.03 0.03 0.07 0.29 0.15 0.07 0.06 0.06 0.11 0.16 0.19 0.21 0.54 1.07 0.98 0.82 1.13 1.09 0.96 1.14 1.17 1.07 1.07 1.37 1.36 1.10 0.99 1.51 1.50
0.01 0.01 0.00 0.00 0.06 0.08 0.23 0.22 0.28 0.17 0.15 0.21 0.35 0.28 0.21 0.30 0.94 1.28 1.04 1.10 1.29 1.33 1.30 1.45 1.51 1.61 1.23 1.74 1.64 1.52 1.65 1.38
0.04 0.02 0.02 0.02 0.02 0.11 0.19 0.17 0.28 0.32 0.42 0.41 0.37 0.41 0.30 0.28 0.58 1.14 1.42 1.30 1.34 1.33 1.34 1.35 1.29 1.36 1.51 1.79 2.17 2.18 2.20 1.97
0.09 0.06 0.06 0.07 0.05 0.17 0.20 0.20 0.32 0.36 0.41 0.36 0.39 0.47 0.62 0.61 0.60 0.95 1.43 1.74 1.56 1.08 1.21 1.23 1.19 1.00 1.09 1.42 1.91 2.13 2.52 2.68
0.16 0.16 0.18 0.21 0.20 0.22 0.34 0.33 0.50 0.48 0.54 0.69 0.65 0.69 0.83 0.92 0.71 0.87 1.40 1.32 1.17 0.93 1.12 1.28 1.25 1.29 1.34 1.33 1.51 1.53 1.62 1.97
0.19 0.21 0.24 0.28 0.30 0.29 0.34 0.36 0.59 0.63 0.66 0.88 0.95 1.02 1.12 1.09 0.95 0.92 1.14 1.28 1.40 1.32 1.43 1.45 1.43 1.39 1.43 1.49 1.43 1.39 1.44 1.46
0.27 0.27 0.31 0.32 0.34 0.37 0.54 0.41 0.39 0.58 0.77 0.81 0.74 0.85 1.06 1.09 1.00 0.93 1.09 1.60 1.90 2.05 2.09 1.87 1.78 1.72 1.76 1.76 1.63 1.54 1.69 1.64
0.53 0.61 0.51 0.57 0.57 0.56 0.68 0.77 0.87 0.91 0.88 0.83 0.93 1.14 1.50 1.52 1.48 1.37 1.47 1.91 2.19 2.07 2.22 2.39 2.13 2.16 2.15 2.10 2.03 1.94 1.87 1.80
0.41 0.96 1.11 1.06 1.07 1.21 1.06 1.00 1.13 1.24 1.19 1.26 1.76 2.16 2.32 2.24 2.25 2.45 2.25 1.97 1.88 1.83 2.03 2.20 2.16 2.31 2.45 2.40 2.30 2.17 2.12 2.23
0.24 0.47 0.78 1.32 0.85 1.19 1.03 1.05 1.41 1.70 1.83 1.98 2.18 2.36 2.44 2.64 2.68 2.47 2.30 2.56 2.82 2.63 2.66 2.78 2.55 2.58 2.95 3.02 2.92 2.70 2.49 2.52
0.30 0.35 0.44 0.56 0.80 1.43 2.21 1.21 1.48 1.80 1.92 1.77 1.91 2.34 2.44 2.48 2.33 2.06 1.81 1.93 2.07 2.30 2.31 2.34 2.41 2.49 2.55 2.84 3.07 3.23 2.88 2.64
0.30 0.40 0.49 0.52 0.55 0.58 0.79 0.85 1.53 2.19 2.04 1.88 2.14 2.17 2.24 2.25 2.14 1.75 1.49 1.52 1.51 1.49 1.52 1.75 1.91 2.10 2.41 2.40 2.58 2.84 2.82 2.75
0.26 0.32 0.36 0.42 0.54 0.70 0.71 0.71 1.17 1.67 1.98 2.38 2.03 2.39 2.40 1.96 1.99 1.79 1.61 1.54 1.49 1.62 1.46 1.59 1.94 1.99 2.54 2.50 2.44 2.65 2.79 2.79
0.20 0.27 0.30 0.37 0.41 0.34 0.40 0.50 0.64 0.85 1.57 2.59 2.57 2.85 3.86 2.89 2.01 1.99 1.94 2.18 2.05 1.87 2.03 1.98 1.95 1.91 2.56 2.55 2.58 2.36 2.77 2.82
0.22 0.22 0.29 0.32 0.28 0.23 0.20 0.21 0.30 0.39 0.44 1.07 2.19 2.52 3.36 4.25 3.28 2.73 2.83 2.64 2.62 2.27 2.14 2.11 1.95 2.59 2.76 3.01 3.35 2.82 2.50 2.66

GFSFLT1_prec_precacc_255.txt.gz
Total_Precipitation_Accumulation
0.03 0.08 0.05 0.05 0.19 0.44 0.86 0.94 1.10 1.10 0.80 0.67 0.68 0.81 0.92 0.98 0.92 0.93 1.19 1.27 1.27 1.36 1.54 1.77 1.79 1.61 1.29 1.08 1.17 1.32 1.30 1.16
0.04 0.07 0.08 0.07 0.13 0.40 0.50 0.73 0.92 0.65 0.41 0.36 0.41 0.49 0.58 0.95 1.02 0.76 0.99 1.25 1.22 1.12 1.40 2.15 2.28 1.46 1.01 1.07 1.34 1.35 1.20 1.06
0.01 0.03 0.05 0.08 0.17 0.40 0.48 0.33 0.29 0.35 0.36 0.22 0.16 0.22 0.35 0.69 1.03 0.81 0.85 0.97 1.02 1.12 0.94 1.05 1.60 1.87 1.70 1.24 1.24 1.51 1.38 1.28
0.02 0.04 0.04 0.06 0.09 0.16 0.30 0.15 0.09 0.10 0.19 0.30 0.30 0.22 0.39 1.10 1.40 1.09 0.86 0.95 0.98 1.08 1.05 0.96 1.13 1.77 1.77 1.34 0.99 1.16 1.59 1.50
0.00 0.00 0.00 0.03 0.03 0.07 0.29 0.15 0.07 0.06 0.08 0.12 0.16 0.19 0.21 0.54 1.07 0.98 0.82 1.13 1.09 0.96 1.14 1.17 1.07 1.07 1.37 1.36 1.10 0.99 1.51 1.50
0.01 0.01 0.00 0.00 0.06 0.08 0.23 0.22 0.28 0.17 0.15 0.21 0.35 0.28 0.21 0.32 0.95 1.28 1.04 1.10 1.29 1.33 1.30 1.45 1.51 1.61 1.23 1.74 1.64 1.52 1.65 1.38
0.04 0.02 0.02 0.02 0.02 0.11 0.19 0.17 0.28 0.32 0.42 0.41 0.37 0.41 0.30 0.28 0.58 1.14 1.43 1.35 1.38 1.34 1.34 1.35 1.29 1.36 1.51 1.79 2.17 2.18 2.20 1.97
0.09 0.06 0.06 0.07 0.05 0.17 0.20 0.20 0.32 0.36 0.41 0.36 0.39 0.47 0.62 0.61 0.60 0.95 1.44 1.78 1.60 1.15 1.29 1.25 1.20 1.00 1.09 1.42 1.91 2.13 2.52 2.69
0.16 0.16 0.18 0.21 0.20 0.22 0.34 0.33 0.50 0.48 0.54 0.69 0.65 0.69 0.83 0.93 0.72 0.88 1.40 1.33 1.20 1.00 1.22 1.38 1.28 1.29 1.34 1.33 1.51 1.53 1.66 2.07
0.19 0.21 0.24 0.28 0.30 0.29 0.34 0.36 0.59 0.63 0.66 0.88 0.95 1.02 1.15 1.11 0.99 0.95 1.15 1.30 1.44 1.39 1.64 1.63 1.60 1.50 1.47 1.53 1.45 1.41 1.53 1.61
0.27 0.27 0.31 0.32 0.34 0.37 0.54 0.42 0.40 0.59 0.78 0.84 0.79 0.89 1.12 1.19 1.21 1.25 1.33 1.82 2.19 2.41 2.48 2.28 2.34 2.29 2.22 2.18 1.93 1.76 1.92 1.91
0.53 0.61 0.51 0.57 0.57 0.56 0.68 0.77 0.87 0.91 0.89 0.87 1.01 1.22 1.60 1.70 1.73 1.71 1.87 2.34 2.65 2.58 2.78 2.94 2.53 2.47 2.67 2.87 2.95 2.86 2.61 2.36
0.41 0.96 1.11 1.06 1.07 1.21 1.06 1.00 1.13 1.24 1.19 1.26 1.76 2.17 2.34 2.27 2.29 2.53 2.41 2.15 2.10 2.06 2.26 2.43 2.39 2.51 2.66 2.72 2.83 2.78 2.60 2.66
0.25 0.47 0.78 1.32 0.85 1.19 1.03 1.05 1.41 1.70 1.83 1.98 2.18 2.36 2.44 2.64 2.68 2.47 2.32 2.59 2.87 2.72 2.77 2.90 2.68 2.74 3.05 3.10 3.05 2.86 2.68 2.72
0.30 0.37 0.46 0.57 0.80 1.43 2.21 1.21 1.48 1.80 1.92 1.77 1.91 2.34 2.44 2.48 2.33 2.06 1.81 1.93 2.07 2.31 2.32 2.37 2.45 2.54 2.63 2.93 3.15 3.32 3.00 2.71
0.30 0.40 0.50 0.53 0.57 0.59 0.79 0.85 1.53 2.19 2.04 1.88 2.14 2.17 2.24 2.25 2.14 1.75 1.49 1.52 1.51 1.49 1.52 1.75 1.91 2.10 2.42 2.42 2.61 2.89 2.91 2.87
0.26 0.32 0.36 0.42 0.54 0.71 0.72 0.72 1.17 1.67 1.98 2.38 2.03 2.39 2.40 1.96 1.99 1.79 1.61 1.54 1.49 1.62 1.46 1.59 1.94 1.99 2.54 2.50 2.44 2.65 2.80 2.80
0.20 0.27 0.30 0.37 0.41 0.34 0.40 0.50 0.64 0.85 1.58 2.59 2.57 2.85 3.86 2.89 2.01 1.99 1.94 2.18 2.05 1.87 2.03 1.98 1.95 1.91 2.56 2.55 2.59 2.36 2.77 2.82
0.22 0.22 0.29 0.32 0.28 0.23 0.20 0.21 0.30 0.39 0.44 1.07 2.19 2.52 3.36 4.25 3.28 2.73 2.83 2.64 2.62 2.27 2.14 2.11 1.95 2.59 2.76 3.02 3.36 2.82 2.50 2.66

GFSFLT1_prec_precacc_258.txt.gz
Total_Precipitation_Accumulation
0.03 0.08 0.05 0.05 0.20 0.44 0.86 0.94 1.10 1.10 0.80 0.67 0.68 0.81 0.92 0.98 0.92 0.93 1.19 1.27 1.27 1.36 1.54 1.77 1.79 1.61 1.29 1.08 1.17 1.32 1.30 1.16
0.04 0.07 0.08 0.07 0.13 0.40 0.50 0.73 0.93 0.65 0.41 0.36 0.41 0.49 0.58 0.95 1.02 0.76 0.99 1.25 1.22 1.12 1.40 2.15 2.28 1.46 1.01 1.07 1.34 1.35 1.20 1.06
0.01 0.03 0.05 0.08 0.17 0.40 0.49 0.34 0.29 0.36 0.36 0.22 0.16 0.22 0.35 0.69 1.03 0.81 0.85 0.97 1.02 1.12 0.94 1.05 1.60 1.87 1.70 1.24 1.24 1.51 1.38 1.28
0.02 0.04 0.04 0.06 0.09 0.16 0.30 0.17 0.12 0.12 0.22 0.31 0.30 0.22 0.39 1.10 1.40 1.09 0.86 0.95 0.98 1.08 1.05 0.96 1.13 1.77 1.77 1.34 0.99 1.16 1.59 1.50
0.00 0.00 0.00 0.03 0.03 0.07 0.29 0.15 0.07 0.09 0.12 0.14 0.17 0.19 0.21 0.54 1.07 0.98 0.82 1.13 1.09 0.96 1.14 1.17 1.07 1.07 1.37 1.36 1.10 0.99 1.51 1.50
0.01 0.01 0.00 0.00 0.06 0.08 0.23 0.22 0.28 0.17 0.16 0.23 0.38 0.30 0.24 0.36 0.97 1.29 1.04 1.10 1.29 1.33 1.30 1.45 1.51 1.61 1.23 1.74 1.64 1.52 1.65 1.38
0.04 0.02 0.02 0.02 0.02 0.11 0.19 0.17 0.28 0.32 0.42 0.41 0.37 0.41 0.33 0.31 0.62 1.18 1.49 1.41 1.41 1.35 1.35 1.35 1.29 1.36 1.51 1.79 2.17 2.18 2.20 1.97
0.09 0.06 0.06 0.07 0.05 0.17 0.20 0.20 0.32 0.36 0.41 0.36 0.39 0.47 0.62 0.61 0.60 0.95 1.45 1.81 1.63 1.21 1.38 1.31 1.22 1.00 1.09 1.42 1.91 2.13 2.52 2.69
0.16 0.16 0.18 0.21 0.20 0.22 0.34 0.33 0.50 0.48 0.54 0.69 0.65 0.69 0.83 0.93 0.72 0.88 1.40 1.33 1.20 1.00 1.23 1.41 1.31 1.32 1.36 1.33 1.51 1.53 1.66 2.07
0.19 0.21 0.24 0.28 0.30 0.29 0.34 0.36 0.59 0.63 0.66 0.88 0.95 1.02 1.15 1.11 0.99 0.95 1.15 1.30 1.44 1.39 1.65 1.64 1.60 1.50 1.48 1.53 1.45 1.41 1.53 1.62
0.27 0.27 0.31 0.32 0.34 0.37 0.54 0.42 0.40 0.59 0.78 0.84 0.79 0.89 1.12 1.19 1.21 1.25 1.34 1.83 2.20 2.41 2.48 2.28 2.35 2.29 2.23 2.19 1.94 1.76 1.93 1.92
0.53 0.61 0.51 0.57 0.57 0.56 0.68 0.77 0.87 0.92 0.89 0.87 1.01 1.22 1.61 1.70 1.73 1.71 1.88 2.35 2.66 2.59 2.80 2.96 2.55 2.49 2.71 2.91 2.98 2.90 2.62 2.37
0.41 0.96 1.11 1.06 1.07 1.21 1.06 1.00 1.13 1.24 1.19 1.26 1.76 2.17 2.34 2.27 2.29 2.53 2.43 2.19 2.18 2.13 2.33 2.50 2.45 2.59 2.71 2.78 2.89 2.80 2.61 2.67
0.27 0.48 0.78 1.32 0.85 1.19 1.03 1.05 1.41 1.70 1.83 1.98 2.18 2.36 2.44 2.64 2.68 2.48 2.33 2.60 2.88 2.75 2.81 2.97 2.76 2.82 3.12 3.15 3.08 2.88 2.68 2.73
0.31 0.38 0.46 0.57 0.80 1.43 2.21 1.21 1.48 1.80 1.92 1.77 1.91 2.34 2.44 2.48 2.34 2.07 1.82 1.93 2.07 2.31 2.33 2.38 2.46 2.56 2.65 2.96 3.16 3.33 3.02 2.73
0.30 0.40 0.50 0.53 0.57 0.59 0.79 0.85 1.53 2.19 2.04 1.88 2.14 2.17 2.24 2.25 2.14 1.75 1.49 1.52 1.51 1.49 1.52 1.75 1.91 2.10 2.43 2.44 2.63 2.91 2.94 2.92
0.26 0.32 0.36 0.42 0.54 0.71 0.72 0.72 1.17 1.67 1.98 2.38 2.03 2.39 2.40 1.96 1.99 1.79 1.61 1.54 1.49 1.62 1.46 1.59 1.94 1.99 2.54 2.50 2.45 2.65 2.80 2.81
0.20 0.27 0.30 0.37 0.41 0.34 0.40 0.50 0.64 0.85 1.58 2.59 2.57 2.85 3.86 2.89 2.01 1.99 1.94 2.18 2.05 1.87 2.03 1.98 1.95 1.91 2.56 2.55 2.59 2.36 2.77 2.82
0.22 0.22 0.29 0.32 0.28 0.23 0.20 0.21 0.30 0.39 0.44 1.07 2.19 2.52 3.37 4.25 3.28 2.73 2.83 2.64 2.62 2.27 2.14 2.11 1.95 2.59 2.76 3.02 3.36 2.82 2.50 2.66

GFSFLT1_prec_precacc_264.txt.gz
Total_Precipitation_Accumulation
0.03 0.08 0.05 0.05 0.20 0.44 0.86 0.94 1.10 1.10 0.80 0.67 0.68 0.81 0.92 0.98 0.92 0.93 1.19 1.27 1.27 1.36 1.54 1.77 1.79 1.61 1.29 1.08 1.17 1.32 1.30 1.16
0.04 0.07 0.08 0.07 0.13 0.40 0.50 0.73 0.93 0.65 0.41 0.36 0.41 0.49 0.58 0.95 1.02 0.76 0.99 1.25 1.22 1.12 1.40 2.15 2.28 1.46 1.01 1.07 1.34 1.35 1.20 1.06
0.01 0.03 0.05 0.08 0.17 0.40 0.49 0.34 0.29 0.36 0.36 0.22 0.16 0.22 0.35 0.69 1.03 0.81 0.85 0.97 1.02 1.12 0.94 1.05 1.60 1.87 1.70 1.24 1.24 1.51 1.38 1.28
0.02 0.04 0.04 0.06 0.09 0.16 0.30 0.17 0.12 0.12 0.22 0.32 0.35 0.23 0.39 1.10 1.40 1.09 0.86 0.95 0.98 1.08 1.05 0.96 1.13 1.77 1.77 1.34 0.99 1.16 1.59 1.50
0.00 0.00 0.00 0.03 0.03 0.07 0.29 0.15 0.07 0.09 0.12 0.15 0.23 0.23 0.21 0.54 1.07 0.98 0.82 1.13 1.09 0.96 1.14 1.17 1.07 1.07 1.37 1.36 1.10 0.99 1.51 1.50
0.01 0.01 0.00 0.00 0.06 0.08 0.23 0.22 0.28 0.17 0.16 0.24 0.44 0.41 0.29 0.38 0.98 1.29 1.04 1.10 1.29 1.33 1.30 1.45 1.51 1.61 1.23 1.74 1.64 1.52 1.65 1.38
0.04 0.02 0.02 0.02 0.02 0.11 0.19 0.17 0.28 0.33 0.46 0.45 0.42 0.51 0.38 0.34 0.63 1.21 1.50 1.41 1.41 1.35 1.35 1.35 1.29 1.36 1.51 1.79 2.17 2.18 2.20 1.97
0.09 0.06 0.06 0.07 0.05 0.17 0.20 0.20 0.32 0.36 0.47 0.50 0.50 0.64 0.80 0.73 0.64 0.98 1.46 1.83 1.66 1.22 1.39 1.32 1.22 1.00 1.09 1.42 1.91 2.13 2.52 2.69
0.20 0.18 0.18 0.21 0.20 0.22 0.34 0.33 0.50 0.49 0.56 0.75 0.70 0.74 0.91 1.11 0.91 1.00 1.49 1.39 1.22 1.00 1.24 1.42 1.32 1.32 1.36 1.33 1.51 1.53 1.66 2.07
0.30 0.26 0.25 0.28 0.30 0.29 0.34 0.36 0.59 0.63 0.67 0.91 1.02 1.09 1.18 1.15 1.05 0.98 1.20 1.36 1.51 1.42 1.66 1.64 1.60 1.50 1.48 1.53 1.46 1.41 1.53 1.62
0.40 0.33 0.34 0.33 0.34 0.37 0.54 0.42 0.40 0.59 0.78 0.84 0.80 0.93 1.19 1.25 1.25 1.33 1.41 1.86 2.23 2.48 2.56 2.34 2.36 2.29 2.23 2.19 1.95 1.76 1.94 1.93
0.64 0.70 0.56 0.59 0.57 0.56 0.68 0.77 0.87 0.92 0.89 0.87 1.01 1.22 1.61 1.73 1.84 1.80 1.92 2.38 2.66 2.60 2.82 3.02 2.63 2.55 2.78 2.97 3.01 2.92 2.64 2.40
0.44 0.98 1.13 1.08 1.08 1.23 1.06 1.00 1.13 1.24 1.19 1.26 1.76 2.17 2.34 2.27 2.29 2.55 2.45 2.23 2.19 2.14 2.34 2.53 2.49 2.66 2.81 2.88 3.01 2.93 2.71 2.75
0.28 0.49 0.78 1.32 0.86 1.20 1.04 1.05 1.41 1.70 1.83 1.98 2.18 2.36 2.44 2.64 2.68 2.48 2.33 2.60 2.89 2.76 2.83 3.01 2.81 2.87 3.20 3.26 3.21 3.07 2.87 2.86
0.31 0.38 0.46 0.58 0.80 1.43 2.21 1.21 1.48 1.80 1.92 1.77 1.91 2.34 2.44 2.48 2.34 2.07 1.82 1.93 2.07 2.31 2.33 2.38 2.48 2.58 2.68 3.00 3.23 3.40 3.11 2.87
0.30 0.40 0.50 0.53 0.57 0.60 0.79 0.85 1.53 2.19 2.04 1.89 2.14 2.17 2.24 2.25 2.14 1.75 1.49 1.52 1.51 1.49 1.52 1.75 1.91 2.11 2.44 2.45 2.65 2.95 2.99 2.99
0.26 0.32 0.36 0.42 0.54 0.71 0.72 0.72 1.17 1.67 1.98 2.38 2.03 2.39 2.40 1.96 1.99 1.79 1.61 1.54 1.49 1.62 1.46 1.59 1.94 1.99 2.55 2.51 2.46 2.66 2.82 2.84
0.20 0.27 0.30 0.37 0.41 0.34 0.40 0.50 0.64 0.85 1.58 2.59 2.57 2.85 3.86 2.89 2.01 1.99 1.94 2.18 2.05 1.87 2.03 1.98 1.95 1.91 2.57 2.56 2.60 2.37 2.77 2.82
0.22 0.22 0.29 0.32 0.28 0.23 0.20 0.21 0.30 0.39 0.44 1.07 2.19 2.52 3.37 4.25 3.28 2.73 2.83 2.64 2.62 2.27 2.14 2.11 1.96 2.59 2.76 3.02 3.36 2.82 2.50 2.66

GFSFLT1_prec_precacc_270.txt.gz
Total_Precipitation_Accumulation
0.03 0.08 0.05 0.05 0.20 0.44 0.86 0.95 1.10 1.10 0.81 0.67 0.68 0.81 0.92 0.98 0.92 0.93 1.19 1.27 1.27 1.36 1.54 1.77 1.79 1.61 1.29 1.08 1.17 1.32 1.30 1.16
0.04 0.07 0.08 0.07 0.13 0.40 0.50 0.77 0.94 0.65 0.41 0.36 0.41 0.49 0.58 0.95 1.02 0.76 0.99 1.25 1.22 1.12 1.40 2.15 2.28 1.46 1.01 1.07 1.34 1.35 1.20 1.06
0.01 0.03 0.05 0.08 0.17 0.40 0.49 0.34 0.36 0.43 0.37 0.23 0.16 0.22 0.35 0.69 1.03 0.81 0.85 0.97 1.02 1.12 0.94 1.05 1.60 1.87 1.70 1.24 1.24 1.51 1.38 1.28
0.02 0.04 0.04 0.06 0.09 0.16 0.30 0.17 0.13 0.22 0.41 0.56 0.52 0.32 0.39 1.11 1.40 1.09 0.86 0.95 0.98 1.08 1.05 0.96 1.13 1.77 1.77 1.34 0.99 1.16 1.59 1.50
0.00 0.00 0.00 0.03 0.03 0.07 0.29 0.15 0.08 0.16 0.26 0.45 0.64 0.62 0.41 0.63 1.11 0.99 0.82 1.13 1.09 0.96 1.14 1.17 1.07 1.07 1.37 1.36 1.10 0.99 1.51 1.50
0.01 0.01 0.00 0.00 0.06 0.08 0.23 0.22 0.28 0.18 0.29 0.51 0.82 0.86 0.77 0.83 1.28 1.55 1.20 1.15 1.30 1.33 1.30 1.45 1.51 1.61 1.23 1.74 1.64 1.52 1.65 1.38
0.04 0.02 0.02 0.02 0.02 0.11 0.19 0.17 0.28 0.33 0.50 0.62 0.68 0.79 0.72 0.83 1.10 1.65 1.92 1.72 1.54 1.39 1.37 1.37 1.29 1.36 1.51 1.79 2.17 2.18 2.20 1.97
0.09 0.06 0.06 0.07 0.05 0.17 0.20 0.20 0.32 0.37 0.50 0.61 0.68 0.86 1.11 1.07 1.02 1.39 1.93 2.47 2.34 1.87 1.79 1.47 1.26 1.01 1.10 1.42 1.91 2.13 2.52 2.69
0.20 0.18 0.18 0.21 0.20 0.22 0.34 0.33 0.50 0.49 0.58 0.79 0.80 0.89 1.10 1.38 1.25 1.35 2.01 2.29 2.48 2.39 2.46 2.38 1.93 1.63 1.48 1.38 1.53 1.54 1.66 2.07
0.30 0.27 0.28 0.31 0.31 0.29 0.34 0.36 0.59 0.63 0.67 0.92 1.05 1.14 1.27 1.25 1.19 1.26 1.70 2.03 2.19 2.31 2.73 2.60 2.57 2.50 2.48 2.20 1.74 1.56 1.62 1.65
0.40 0.33 0.35 0.34 0.35 0.38 0.54 0.42 0.40 0.59 0.78 0.84 0.80 0.94 1.21 1.30 1.31 1.40 1.54 2.06 2.68 3.10 3.32 3.14 3.16 3.12 3.17 3.28 2.81 2.38 2.45 2.24
0.64 0.70 0.57 0.60 0.58 0.58 0.68 0.77 0.87 0.92 0.89 0.87 1.01 1.22 1.61 1.74 1.86 1.91 2.13 2.68 2.96 2.97 3.32 3.59 3.28 3.30 3.61 3.80 3.82 3.62 3.29 2.98
0.44 0.98 1.13 1.08 1.09 1.23 1.08 1.00 1.13 1.24 1.19 1.26 1.76 2.17 2.34 2.27 2.29 2.56 2.56 2.45 2.54 2.64 2.91 3.09 3.18 3.54 3.73 3.81 3.90 3.79 3.56 3.51
0.28 0.49 0.78 1.32 0.86 1.20 1.04 1.05 1.42 1.70 1.83 1.98 2.18 2.36 2.44 2.64 2.68 2.48 2.33 2.61 2.91 2.83 2.98 3.26 3.13 3.24 3.64 3.98 4.10 4.02 3.94 3.93
0.31 0.38 0.46 0.58 0.80 1.43 2.21 1.21 1.48 1.80 1.92 1.77 1.91 2.34 2.44 2.48 2.34 2.07 1.82 1.93 2.07 2.32 2.34 2.41 2.52 2.67 2.80 3.15 3.40 3.62 3.43 3.37
0.30 0.40 0.50 0.53 0.57 0.60 0.79 0.85 1.53 2.19 2.04 1.89 2.14 2.17 2.24 2.25 2.14 1.75 1.49 1.52 1.51 1.49 1.52 1.75 1.91 2.11 2.45 2.47 2.68 2.99 3.09 3.10
0.26 0.32 0.36 0.42 0.54 0.71 0.72 0.72 1.17 1.67 1.98 2.38 2.03 2.39 2.40 1.96 1.99 1.79 1.61 1.54 1.49 1.62 1.46 1.59 1.94 1.99 2.55 2.51 2.46 2.66 2.82 2.85
0.20 0.27 0.30 0.37 0.41 0.34 0.40 0.50 0.64 0.85 1.58 2.59 2.57 2.85 3.86 2.89 2.01 1.99 1.94 2.18 2.05 1.87 2.03 1.98 1.95 1.91 2.57 2.56 2.60 2.37 2.77 2.83
0.22 0.22 0.29 0.32 0.28 0.23 0.20 0.21 0.30 0.39 0.44 1.07 2.19 2.52 3.37 4.25 3.28 2.73 2.83 2.64 2.62 2.27 2.14 2.11 1.96 2.60 2.76 3.02 3.36 2.82 2.50 2.66

GFSFLT1_prec_precacc_273.txt.gz
Total_Precipitation_Accumulation
0.03 0.08 0.05 0.05 0.20 0.44 0.86 0.95 1.10 1.10 0.81 0.67 0.68 0.81 0.92 0.98 0.92 0.93 1.19 1.27 1.27 1.36 1.54 1.77 1.79 1.61 1.29 1.08 1.17 1.32 1.30 1.16
0.04 0.07 0.08 0.07 0.13 0.40 0.50 0.77 0.94 0.65 0.41 0.36 0.41 0.49 0.58 0.96 1.02 0.76 0.99 1.25 1.22 1.12 1.40 2.15 2.28 1.46 1.01 1.07 1.34 1.35 1.20 1.06
0.01 0.03 0.05 0.08 0.17 0.40 0.49 0.34 0.36 0.43 0.37 0.23 0.16 0.22 0.35 0.69 1.03 0.81 0.85 0.97 1.02 1.12 0.94 1.05 1.60 1.87 1.70 1.24 1.24 1.51 1.38 1.28
0.02 0.04 0.04 0.06 0.09 0.16 0.30 0.17 0.13 0.22 0.41 0.56 0.53 0.34 0.40 1.13 1.43 1.10 0.87 0.95 0.99 1.09 1.05 0.96 1.13 1.77 1.77 1.34 0.99 1.16 1.59 1.50
0.00 0.00 0.00 0.03 0.03 0.07 0.29 0.15 0.08 0.16 0.26 0.45 0.67 0.70 0.53 0.73 1.21 1.06 0.84 1.14 1.10 0.96 1.14 1.17 1.07 1.07 1.37 1.36 1.10 0.99 1.51 1.50
0.01 0.01 0.00 0.00 0.06 0.08 0.23 0.22 0.28 0.18 0.29 0.51 0.82 0.90 0.89 1.01 1.44 1.70 1.32 1.25 1.35 1.34 1.31 1.45 1.51 1.61 1.24 1.74 1.64 1.52 1.65 1.38
0.04 0.02 0.02 0.02 0.02 0.11 0.19 0.17 0.28 0.33 0.50 0.62 0.68 0.79 0.76 0.98 1.36 2.02 2.33 2.00 1.74 1.49 1.44 1.44 1.34 1.38 1.53 1.80 2.18 2.19 2.21 1.97
0.09 0.06 0.06 0.07 0.05 0.17 0.20 0.20 0.32 0.37 0.50 0.61 0.68 0.86 1.11 1.09 1.16 1.75 2.37 2.96 2.81 2.17 2.07 1.69 1.46 1.18 1.18 1.47 1.98 2.20 2.57 2.72
0.20 0.18 0.18 0.21 0.20 0.22 0.34 0.33 0.50 0.49 0.58 0.79 0.80 0.89 1.10 1.38 1.26 1.41 2.19 2.60 2.83 2.65 2.72 2.84 2.60 2.27 1.98 1.68 1.71 1.74 1.85 2.19
0.30 0.27 0.28 0.31 0.31 0.29 0.34 0.36 0.59 0.63 0.67 0.92 1.05 1.14 1.27 1.25 1.19 1.27 1.79 2.23 2.46 2.55 2.91 2.79 2.92 3.15 3.35 3.25 2.62 2.16 1.98 1.91
0.40 0.33 0.35 0.34 0.35 0.38 0.54 0.42 0.40 0.59 0.78 0.84 0.80 0.94 1.21 1.30 1.31 1.40 1.54 2.08 2.75 3.19 3.41 3.23 3.24 3.22 3.38 3.75 3.68 3.29 3.12 2.75
0.64 0.70 0.57 0.60 0.58 0.58 0.68 0.77 0.87 0.92 0.89 0.87 1.01 1.22 1.61 1.74 1.86 1.91 2.13 2.68 2.96 2.99 3.35 3.62 3.30 3.32 3.64 3.86 4.01 3.99 3.77 3.71
0.44 0.98 1.13 1.08 1.09 1.23 1.08 1.00 1.13 1.24 1.19 1.26 1.76 2.17 2.34 2.27 2.29 2.56 2.56 2.45 2.54 2.64 2.91 3.09 3.18 3.54 3.73 3.81 3.91 3.82 3.63 3.67
0.28 0.49 0.78 1.32 0.86 1.20 1.04 1.05 1.42 1.70 1.83 1.98 2.18 2.36 2.44 2.64 2.68 2.48 2.33 2.61 2.91 2.83 2.98 3.26 3.13 3.24 3.64 3.98 4.10 4.02 3.95 3.94
0.31 0.38 0.46 0.58 0.80 1.43 2.21 1.21 1.48 1.80 1.92 1.77 1.91 2.34 2.44 2.48 2.34 2.07 1.82 1.93 2.07 2.32 2.34 2.41 2.52 2.67 2.80 3.15 3.40 3.62 3.43 3.37
0.30 0.40 0.50 0.53 0.57 0.60 0.79 0.85 1.53 2.19 2.04 1.89 2.14 2.17 2.24 2.25 2.14 1.75 1.49 1.52 1.51 1.49 1.52 1.75 1.91 2.11 2.45 2.47 2.68 2.99 3.09 3.10
0.26 0.32 0.36 0.42 0.54 0.71 0.72 0.72 1.17 1.67 1.98 2.38 2.03 2.39 2.40 1.96 1.99 1.79 1.61 1.54 1.49 1.62 1.46 1.59 1.94 1.99 2.55 2.51 2.46 2.66 2.82 2.85
0.20 0.27 0.30 0.37 0.41 0.34 0.40 0.50 0.64 0.85 1.58 2.59 2.57 2.85 3.86 2.89 2.01 1.99 1.94 2.18 2.05 1.87 2.03 1.98 1.95 1.91 2.57 2.56 2.60 2.37 2.77 2.83
0.22 0.22 0.29 0.32 0.28 0.23 0.20 0.21 0.30 0.39 0.44 1.07 2.19 2.52 3.37 4.25 3.28 2.73 2.83 2.64 2.62 2.27 2.14 2.11 1.96 2.60 2.76 3.02 3.36 2.82 2.50 2.66

GFSFLT1_prec_precacc_279.txt.gz
Total_Precipitation_Accumulation
0.03 0.08 0.05 0.05 0.20 0.44 0.86 0.95 1.10 1.10 0.81 0.67 0.68 0.81 0.93 0.99 0.95 1.00 1.28 1.29 1.28 1.37 1.55 1.77 1.79 1.61 1.29 1.08 1.17 1.32 1.30 1.16
0.04 0.07 0.08 0.07 0.13 0.40 0.50 0.77 0.94 0.65 0.41 0.36 0.41 0.49 0.59 0.96 1.04 0.77 1.01 1.26 1.24 1.14 1.41 2.15 2.28 1.46 1.01 1.07 1.34 1.35 1.20 1.06
0.01 0.03 0.05 0.08 0.17 0.40 0.49 0.34 0.36 0.43 0.37 0.23 0.16 0.22 0.36 0.70 1.03 0.82 0.86 0.98 1.06 1.18 0.96 1.05 1.60 1.87 1.70 1.24 1.24 1.51 1.38 1.28
0.02 0.04 0.04 0.06 0.09 0.16 0.30 0.17 0.13 0.22 0.41 0.56 0.53 0.34 0.41 1.14 1.44 1.12 0.90 0.99 1.03 1.13 1.08 0.98 1.14 1.78 1.77 1.34 0.99 1.16 1.59 1.50
0.00 0.00 0.00 0.03 0.03 0.07 0.29 0.15 0.08 0.16 0.26 0.45 0.67 0.70 0.53 0.74 1.22 1.09 0.88 1.17 1.13 0.99 1.17 1.21 1.13 1.13 1.44 1.41 1.15 1.01 1.53 1.50
0.01 0.01 0.00 0.00 0.06 0.08 0.23 0.22 0.28 0.18 0.29 0.51 0.82 0.90 0.89 1.01 1.45 1.74 1.40 1.33 1.41 1.39 1.36 1.52 1.59 1.71 1.34 1.85 1.79 1.72 1.85 1.46
0.04 0.02 0.02 0.02 0.02 0.11 0.19 0.17 0.28 0.33 0.50 0.62 0.68 0.79 0.76 0.98 1.37 2.03 2.35 2.12 1.93 1.72 1.64 1.58 1.51 1.61 1.73 1.99 2.41 2.51 2.55 2.29
0.09 0.06 0.06 0.07 0.05 0.17 0.20 0.20 0.32 0.37 0.50 0.61 0.68 0.86 1.11 1.09 1.16 1.75 2.37 2.99 3.02 2.65 2.54 2.12 1.86 1.65 1.73 2.09 2.69 2.98 3.34 3.41
0.20 0.18 0.18 0.21 0.20 0.22 0.34 0.33 0.50 0.49 0.58 0.79 0.80 0.89 1.10 1.38 1.26 1.41 2.19 2.60 2.84 2.74 2.95 3.20 3.08 2.79 2.55 2.35 2.49 2.55 2.62 2.90
0.30 0.27 0.28 0.31 0.31 0.29 0.34 0.36 0.59 0.63 0.67 0.92 1.05 1.14 1.27 1.25 1.19 1.27 1.79 2.23 2.46 2.58 2.97 2.91 3.06 3.26 3.48 3.48 3.01 2.63 2.50 2.44
0.40 0.33 0.35 0.34 0.35 0.38 0.54 0.42 0.40 0.59 0.78 0.84 0.80 0.94 1.21 1.30 1.31 1.40 1.54 2.08 2.75 3.19 3.41 3.24 3.29 3.30 3.48 3.85 3.80 3.46 3.34 3.02
0.64 0.70 0.57 0.60 0.58 0.58 0.68 0.77 0.87 0.92 0.89 0.87 1.01 1.22 1.61 1.74 1.86 1.91 2.13 2.68 2.96 2.99 3.35 3.62 3.30 3.33 3.65 3.87 4.03 4.03 3.82 3.77
0.44 0.98 1.13 1.08 1.09 1.23 1.08 1.00 1.13 1.24 1.19 1.26 1.76 2.17 2.34 2.27 2.29 2.56 2.56 2.45 2.54 2.64 2.91 3.09 3.18 3.54 3.73 3.81 3.91 3.82 3.63 3.68
0.28 0.49 0.78 1.32 0.86 1.20 1.04 1.05 1.42 1.70 1.83 1.98 2.18 2.36 2.44 2.64 2.68 2.48 2.33 2.61 2.91 2.83 2.98 3.26 3.13 3.24 3.64 3.98 4.10 4.02 3.95 3.94
0.31 0.38 0.46 0.58 0.80 1.43 2.21 1.21 1.48 1.80 1.92 1.77 1.91 2.34 2.44 2.48 2.34 2.07 1.82 1.93 2.07 2.32 2.34 2.41 2.52 2.67 2.80 3.15 3.40 3.62 3.43 3.37
0.30 0.40 0.50 0.53 0.57 0.60 0.79 0.85 1.53 2.19 2.04 1.89 2.14 2.17 2.24 2.25 2.14 1.75 1.49 1.52 1.51 1.49 1.52 1.75 1.91 2.11 2.45 2.47 2.68 2.99 3.09 3.10
0.26 0.32 0.36 0.42 0.54 0.71 0.72 0.72 1.17 1.67 1.98 2.38 2.03 2.39 2.40 1.96 1.99 1.79 1.61 1.54 1.49 1.62 1.46 1.59 1.94 1.99 2.55 2.51 2.46 2.66 2.82 2.85
0.20 0.27 0.30 0.37 0.41 0.34 0.40 0.50 0.64 0.85 1.58 2.59 2.57 2.85 3.86 2.89 2.01 1.99 1.94 2.18 2.05 1.87 2.03 1.98 1.95 1.91 2.57 2.56 2.60 2.37 2.77 2.83
0.22 0.22 0.29 0.32 0.28 0.23 0.20 0.21 0.30 0.39 0.44 1.07 2.19 2.52 3.37 4.25 3.28 2.73 2.83 2.64 2.62 2.27 2.14 2.11 1.96 2.60 2.77 3.02 3.36 2.82 2.50 2.66